Location: Byhalia Creek
(34.8270°N, 89.8040°W)
Time: 20:34:45
(UTC+00:00)

Cosmos 44 - Pass Details

Date: 22 April 2026
Orbit: 568 x 782 km, 65.1° (Epoch: 21 May)

Event Time Altitude Azimuth Distance (km) Brightness Sun altitude
Rises 00:58:44 0° 177° (S) 2,988 6.3 -5.2°
Reaches altitude 10° 01:01:17 10° 165° (SSE) 2,118 5.5 -5.7°
Maximum altitude 01:05:16 26° 109° (ESE) 1,378 4.3 -6.5°
Drops below altitude 10° 01:09:28 10° 54° (NE) 2,241 5.6 -7.3°
Sets 01:12:14 0° 42° (NE) 3,200 6.5 -7.8°
